sat.trackr.live / text

‹ back to catalog

STARLINK-2169

NORAD 47752 · 2021-017AG

PAYLOAD ACTIVE UNKNOWN

§ Identity

Operator
Country
US
Launch date
2021-03-04
Launch site
AFETR
Launch vehicle
Mass (kg)
RCS (m²)

Purposes: comms

External: N2YO · Heavens-Above · Gunter

§ Orbital elements

Epoch: 2026-05-25T04:16:49.996416Z

Period
92.47 min
Inclination
53.1548°
Eccentricity
0.0005702
Mean motion
15.57188041 rev/d
Perigee alt
391.9 km
Apogee alt
399.7 km
Semi-major
6,773.9 km
B*
1.1004e-3
RAAN
199.2096°
Arg perigee
10.3482°
Mean anomaly
349.7647°
Rev number
28,973

§ Raw data

STARLINK-21691 47752U 21017AG  26145.17835644  .00081832  00000+0  11004-2 0  99912 47752  53.1548 199.2096 0005702  10.3482 349.7647 15.57188041289730

JSON: /api/v1/satellites/47752 · /tle

For live sub-satellite position, see the globe view (requires WebGL).

§ Visibility from observer

Set your observer location to see the next 7 days of passes ≥ 10°. The values pass through the URL so the page stays shareable.

No JS? Fill the form by hand. The geolocation button needs JavaScript.